CW5346 Weather Reports


Display with metric or nautical units.
time (UTC)temp
F
wind
direction
speed
MPH
gust
MPH
rain 1hr
in
rain 24hr
in
rain mn
in
humidity
%
barometer
mb
20260905101604 65 340 0.0 0.0 0.00 0.00 0.00 85 1010.1
20260905100603 66 340 0.0 0.0 0.00 0.00 0.00 84 1010.1
20260905095604 66 340 0.0 3.0 0.00 0.00 0.00 83 1010.1
20260905093603 67 333 0.0 0.0 0.00 0.00 0.00 82 1009.9
20260905092646 67 333 0.0 2.0 0.00 0.00 0.00 82 1009.9
20260905091604 67 333 0.0 4.0 0.00 0.00 0.00 81 1009.9
20260905090603 68 329 0.0 0.0 0.00 0.00 0.00 81 1009.9
20260905085603 68 329 0.0 1.0 0.00 0.00 0.00 80 1010.0
20260905084604 68 329 0.0 3.0 0.00 0.00 0.00 80 1009.9
20260905083603 68 325 1.0 5.0 0.00 0.00 0.00 79 1009.9
20260905082603 69 338 0.0 5.0 0.00 0.00 0.00 79 1009.9
20260905081603 69 336 0.0 2.0 0.00 0.00 0.00 78 1009.9
20260905080603 69 335 1.0 4.0 0.00 0.00 0.00 78 1009.9
20260905075603 70 342 0.0 5.0 0.00 0.00 0.00 78 1010.0
20260905074604 70 5 0.0 0.0 0.00 0.00 0.00 77 1009.9
20260905073603 70 5 0.0 1.0 0.00 0.00 0.00 76 1010.2
20260905072604 70 5 0.0 0.0 0.00 0.00 0.00 76 1010.1
20260905071603 70 5 0.0 8.0 0.00 0.00 0.00 75 1009.9
20260905070604 70 350 0.0 2.0 0.00 0.00 0.00 75 1010.0
20260905065604 71 347 0.0 3.0 0.00 0.00 0.00 75 1010.0
20260905064625 71 347 0.0 4.0 0.00 0.00 0.00 74 1010.0
20260905063603 71 339 0.0 4.0 0.00 0.00 0.00 75 1010.1
20260905062604 71 344 1.0 5.0 0.00 0.00 0.00 74 1010.2
20260905061625 71 354 0.0 8.0 0.00 0.01 0.00 75 1010.1
20260905060603 71 354 1.0 5.0 0.00 0.01 0.00 76 1010.4
20260905055604 71 347 0.0 3.0 0.00 0.01 0.00 76 1010.4
20260905054605 71 345 0.0 3.0 0.00 0.01 0.00 76 1010.5
20260905053603 71 339 0.0 10.0 0.00 0.01 0.00 76 1010.5
20260905052604 71 349 0.0 3.0 0.00 0.01 0.00 79 1010.7
20260905051604 70 345 0.0 2.0 0.00 0.01 0.00 80 1010.9
20260905050603 70 347 0.0 0.0 0.00 0.01 0.00 81 1010.8
20260905045603 71 346 0.0 0.0 0.00 0.01 0.00 81 1011.0
20260905044603 71 347 0.0 1.0 0.00 0.01 0.00 81 1011.0
20260905043625 71 347 0.0 1.0 0.00 0.01 0.00 81 1011.0
20260905042603 72 346 0.0 0.0 0.00 0.01 0.00 81 1011.3
20260905041604 72 346 0.0 0.0 0.00 0.01 0.00 79 1011.2
20260905040603 72 346 0.0 0.0 0.00 0.01 0.00 77 1011.1
20260905035603 73 346 0.0 3.0 0.00 0.01 0.01 77 1011.1
20260905034603 73 342 0.0 3.0 0.00 0.01 0.01 76 1011.1
20260905033603 73 342 0.0 5.0 0.00 0.01 0.01 76 1011.0
20260905032603 73 345 0.0 5.0 0.00 0.01 0.01 77 1011.1
20260905031604 72 335 1.0 5.0 0.00 0.01 0.01 77 1011.1
20260905030603 72 340 0.0 4.0 0.00 0.01 0.01 79 1010.9
20260905025603 71 342 0.0 4.0 0.00 0.01 0.01 81 1010.9
20260905024624 69 354 0.0 5.0 0.00 0.01 0.01 85 1010.9
20260905023604 68 18 0.0 0.0 0.00 0.01 0.01 93 1010.9
20260905022624 68 18 0.0 1.0 0.00 0.01 0.01 94 1011.3
20260905021603 67 18 0.0 0.0 0.00 0.01 0.01 94 1011.0
20260905020603 67 18 0.0 0.0 0.00 0.01 0.01 94 1011.0
20260905015603 67 18 0.0 0.0 0.00 0.01 0.01 94 1011.3
20260905014603 67 18 0.0 0.0 0.00 0.01 0.01 93 1011.3
20260905013603 67 18 0.0 0.0 0.00 0.01 0.01 93 1011.3
20260905012603 68 18 0.0 0.0 0.00 0.01 0.01 93 1011.3
20260905011624 68 18 0.0 0.0 0.00 0.01 0.01 92 1011.2
20260905010603 68 18 0.0 0.0 0.00 0.01 0.01 92 1011.1
20260905005603 69 18 0.0 0.0 0.00 0.01 0.01 91 1011.1
20260905004604 69 18 0.0 0.0 0.00 0.01 0.01 90 1011.3
20260905003625 69 18 0.0 0.0 0.00 0.01 0.01 90 1010.9
20260905002604 69 18 0.0 0.0 0.00 0.01 0.01 89 1010.9
20260905001603 70 18 0.0 0.0 0.00 0.01 0.01 89 1011.0
20260905000603 70 18 0.0 0.0 0.00 0.01 0.01 88 1010.8
20260904235603 71 18 0.0 0.0 0.00 0.01 0.01 87 1010.8
20260904233603 73 18 0.0 0.0 0.00 0.01 0.01 84 1010.8
20260904232624 73 18 0.0 0.0 0.00 0.01 0.01 83 1010.6
20260904231624 74 18 0.0 0.0 0.00 0.01 0.01 83 1010.6
20260904230603 75 18 0.0 0.0 0.00 0.01 0.01 82 1010.5
20260904225603 76 18 0.0 0.0 0.00 0.01 0.01 81 1010.7
20260904224603 77 18 0.0 0.0 0.00 0.01 0.01 78 1010.8
20260904223603 77 18 0.0 0.0 0.00 0.01 0.01 76 1010.8
20260904222604 78 18 0.0 0.0 0.00 0.01 0.01 72 1010.7
20260904221603 78 18 0.0 0.0 0.00 0.01 0.01 73 1010.9
20260904220603 79 18 0.0 0.0 0.00 0.01 0.01 72 1010.6
20260904215604 79 18 0.0 0.0 0.00 0.01 0.01 68 1010.6
20260904214603 80 18 0.0 2.0 0.00 0.01 0.01 66 1010.6
20260904213604 80 18 0.0 2.0 0.00 0.01 0.01 65 1010.5
20260904212603 80 19 0.0 2.0 0.00 0.01 0.01 67 1010.5
20260904211603 80 26 0.0 8.0 0.00 0.01 0.01 65 1010.5
20260904210603 80 246 0.0 4.0 0.00 0.01 0.01 68 1010.4
20260904205603 80 250 1.0 4.0 0.00 0.01 0.01 69 1010.4
20260904204625 80 286 0.0 5.0 0.00 0.01 0.01 66 1010.5
20260904203603 80 308 0.0 5.0 0.00 0.01 0.01 69 1010.7
20260904202603 80 283 1.0 2.0 0.00 0.01 0.01 65 1010.8
20260904201625 80 286 0.0 2.0 0.00 0.01 0.01 67 1011.0
20260904200624 81 282 0.0 9.0 0.00 0.01 0.01 66 1011.0
20260904195603 81 289 0.0 4.0 0.00 0.01 0.01 67 1010.9
20260904194602 81 289 0.0 11.0 0.00 0.01 0.01 65 1010.7
20260904193603 81 253 0.0 6.0 0.00 0.01 0.01 68 1011.0
20260904192645 81 322 0.0 3.0 0.00 0.01 0.01 66 1011.1
20260904191603 81 322 1.0 6.0 0.00 0.02 0.01 66 1011.2
20260904190603 80 141 0.0 4.0 0.00 0.02 0.01 65 1011.2
20260904185603 81 98 0.0 9.0 0.00 0.02 0.01 68 1011.3
20260904184603 81 277 1.0 8.0 0.00 0.02 0.01 67 1011.3
20260904183603 80 330 1.0 4.0 0.00 0.02 0.01 68 1011.6
20260904182603 81 328 1.0 4.0 0.00 0.02 0.01 67 1011.4
20260904181603 81 324 1.0 12.0 0.00 0.02 0.01 65 1011.5
20260904180603 81 289 1.0 7.0 0.00 0.02 0.01 66 1011.4
20260904175624 81 2 2.0 8.0 0.00 0.02 0.01 65 1011.4
20260904174624 82 168 1.0 7.0 0.00 0.02 0.01 65 1011.2
20260904173603 81 328 0.0 4.0 0.00 0.02 0.01 70 1011.4
20260904172603 81 327 0.0 6.0 0.00 0.02 0.01 68 1011.3
20260904171603 81 286 3.0 8.0 0.00 0.02 0.01 68 1011.3
20260904170603 81 4 1.0 5.0 0.00 0.02 0.01 68 1011.5
20260904165603 80 264 2.0 5.0 0.00 0.02 0.01 67 1011.6
20260904164603 80 289 0.0 6.0 0.00 0.02 0.01 71 1011.6
20260904163603 80 310 3.0 8.0 0.00 0.02 0.01 68 1011.7
20260904162603 80 338 0.0 6.0 0.00 0.02 0.01 70 1011.6
20260904161603 81 317 2.0 10.0 0.00 0.02 0.01 71 1011.6
20260904160624 80 323 1.0 8.0 0.00 0.02 0.01 70 1011.6
20260904155603 80 355 1.0 10.0 0.00 0.02 0.01 71 1011.6
20260904154603 80 330 3.0 8.0 0.00 0.02 0.01 71 1011.7
20260904153603 80 21 1.0 12.0 0.00 0.02 0.01 72 1011.8
20260904152610 80 346 1.0 12.0 0.00 0.02 0.01 76 1012.0
20260904151606 79 320 2.0 7.0 0.00 0.02 0.01 73 1012.2
20260904150624 79 349 3.0 11.0 0.00 0.02 0.01 74 1012.1
20260904145603 79 335 1.0 5.0 0.00 0.02 0.01 76 1012.0
20260904144602 79 335 2.0 6.0 0.00 0.02 0.01 76 1012.0
20260904143603 79 345 2.0 8.0 0.00 0.02 0.01 77 1011.9
20260904142603 79 19 1.0 5.0 0.00 0.02 0.01 77 1011.9
20260904141602 79 342 2.0 9.0 0.00 0.02 0.01 75 1012.0
20260904140603 79 208 1.0 7.0 0.00 0.02 0.01 79 1011.9
20260904135603 78 340 0.0 3.0 0.00 0.02 0.01 79 1011.9
20260904134604 77 336 1.0 9.0 0.00 0.02 0.01 77 1011.8
20260904133603 77 11 1.0 8.0 0.00 0.02 0.01 81 1011.9
20260904132602 77 359 0.0 10.0 0.00 0.02 0.01 83 1012.0
20260904131603 76 335 1.0 9.0 0.00 0.02 0.01 83 1011.8
20260904130625 76 5 1.0 8.0 0.00 0.02 0.01 85 1011.9
20260904125603 75 4 0.0 6.0 0.00 0.02 0.01 88 1011.9
20260904124604 74 354 0.0 6.0 0.00 0.02 0.01 89 1011.8
20260904123602 73 359 0.0 5.0 0.00 0.02 0.01 90 1011.8
20260904122624 73 5 0.0 9.0 0.00 0.02 0.01 92 1011.7
20260904121603 72 354 0.0 1.0 0.00 0.02 0.01 92 1011.8
20260904120603 72 355 0.0 4.0 0.00 0.02 0.01 93 1011.6
20260904115603 72 307 0.0 5.0 0.00 0.02 0.01 94 1011.6
20260904113603 71 296 0.0 7.0 0.00 0.02 0.01 95 1011.5
20260904112603 71 288 1.0 4.0 0.00 0.02 0.01 96 1011.4
20260904111603 71 296 0.0 5.0 0.00 0.02 0.01 96 1011.0
20260904105602 71 349 0.0 0.0 0.00 0.02 0.01 97 1011.1
20260904104604 71 349 0.0 0.0 0.00 0.02 0.01 98 1011.0
20260904103603 71 350 0.0 1.0 0.00 0.02 0.01 98 1011.0
20260904102603 71 355 0.0 3.0 0.00 0.02 0.01 98 1010.8